Location: Darmstadt
(49.8706°N, 8.6494°E)
Time: 07:07:35
(UTC+01:00)

Cosmos 2315 Rocket - Pass Details

Date: 31 October 2020
Orbit: 967 x 1001 km, 82.9° (Epoch: 03 December)

Event Time Altitude Azimuth Distance (km) Brightness Sun altitude
Rises 19:13:19 0° 181° (S) 3,648 7.0 -21.3°
Reaches altitude 10° 19:15:49 10° 179° (S) 2,703 6.3 -21.7°
Maximum altitude 19:21:58 74° 96° (E) 1,008 3.8 -22.7°
Drops below altitude 10° 19:28:10 10° 13° (NNE) 2,722 6.3 -23.7°
Sets 19:30:42 0° 11° (NNE) 3,675 7.0 -24.1°
